QPF
0.05 0.05 0.05 0.07 0.07 0.05 0.04 0.04 0.05 0.03 0.03 0.02 0.02 0.02 0.02 0.01 0.01 0.01 0.01 0.02 0.03 0.04 0.03 0.03 0.03 0.04 0.05 0.04 0.03 0.03 0.04 0.05 0.05 0.05 0.06 0.06 0.05 0.05
0.05 0.05 0.05 0.06 0.08 0.07 0.06 0.06 0.05 0.04 0.03 0.03 0.02 0.04 0.02 0.01 0.01 0.01 0.01 0.01 0.02 0.04 0.04 0.03 0.03 0.04 0.04 0.06 0.05 0.03 0.04 0.04 0.04 0.04 0.04 0.04 0.05 0.04
0.07 0.06 0.05 0.05 0.07 0.06 0.06 0.06 0.05 0.04 0.04 0.04 0.04 0.03 0.02 0.02 0.01 0.01 0.01 0.01 0.01 0.03 0.05 0.05 0.05 0.04 0.05 0.05 0.07 0.06 0.04 0.04 0.04 0.05 0.05 0.04 0.04 0.03
0.07 0.07 0.06 0.06 0.05 0.06 0.05 0.04 0.05 0.06 0.05 0.05 0.04 0.02 0.02 0.02 0.02 0.02 0.01 0.01 0.02 0.02 0.03 0.04 0.05 0.06 0.06 0.06 0.07 0.08 0.07 0.05 0.05 0.05 0.05 0.05 0.04 0.04
0.05 0.04 0.04 0.06 0.06 0.05 0.04 0.04 0.05 0.06 0.06 0.07 0.05 0.02 0.02 0.02 0.02 0.02 0.01 0.01 0.02 0.02 0.03 0.03 0.04 0.05 0.06 0.07 0.06 0.06 0.08 0.09 0.08 0.07 0.06 0.06 0.06 0.05
0.02 0.02 0.02 0.03 0.05 0.04 0.03 0.04 0.04 0.04 0.04 0.04 0.06 0.04 0.02 0.02 0.02 0.01 0.01 0.01 0.02 0.02 0.03 0.03 0.04 0.04 0.04 0.04 0.05 0.05 0.05 0.06 0.07 0.07 0.07 0.07 0.08 0.07
0.02 0.02 0.02 0.03 0.04 0.04 0.03 0.02 0.03 0.03 0.03 0.02 0.04 0.04 0.03 0.03 0.03 0.02 0.01 0.01 0.02 0.02 0.03 0.03 0.03 0.03 0.03 0.04 0.03 0.03 0.03 0.03 0.04 0.04 0.05 0.05 0.06 0.06
0.02 0.02 0.02 0.03 0.03 0.04 0.04 0.03 0.03 0.03 0.02 0.02 0.02 0.02 0.02 0.02 0.03 0.03 0.02 0.02 0.02 0.02 0.02 0.03 0.02 0.02 0.02 0.02 0.03 0.02 0.02 0.03 0.03 0.03 0.04 0.05 0.06 0.06
0.02 0.02 0.02 0.03 0.04 0.04 0.04 0.04 0.04 0.04 0.03 0.02 0.02 0.02 0.02 0.02 0.02 0.03 0.04 0.02 0.02 0.02 0.02 0.02 0.02 0.02 0.02 0.02 0.03 0.03 0.03 0.03 0.03 0.03 0.04 0.04 0.04 0.05
0.03 0.03 0.04 0.04 0.04 0.03 0.03 0.03 0.03 0.03 0.03 0.04 0.02 0.02 0.02 0.02 0.02 0.03 0.03 0.02 0.02 0.02 0.02 0.01 0.01 0.01 0.01 0.02 0.02 0.02 0.03 0.03 0.03 0.03 0.03 0.02 0.03 0.03
0.03 0.04 0.04 0.03 0.04 0.03 0.03 0.02 0.02 0.02 0.02 0.03 0.03 0.02 0.02 0.02 0.02 0.02 0.03 0.03 0.02 0.02 0.01 0.01 0.00 0.01 0.01 0.01 0.01 0.02 0.02 0.03 0.03 0.04 0.03 0.02 0.02 0.02
0.02 0.03 0.03 0.03 0.03 0.03 0.02 0.02 0.02 0.02 0.03 0.03 0.03 0.02 0.02 0.02 0.02 0.02 0.02 0.02 0.02 0.01 0.01 0.00 0.00 0.00 0.01 0.00 0.00 0.00 0.01 0.01 0.01 0.01 0.01 0.01 0.01 0.01
0.03 0.04 0.03 0.03 0.04 0.04 0.03 0.03 0.03 0.03 0.04 0.03 0.02 0.02 0.02 0.02 0.02 0.02 0.02 0.02 0.02 0.01 0.01 0.01 0.00 0.00 0.00 0.00 0.00 0.00 0.00 0.01 0.01 0.01 0.01 0.01 0.02 0.02
0.06 0.06 0.04 0.03 0.04 0.05 0.05 0.04 0.05 0.05 0.04 0.03 0.02 0.02 0.02 0.01 0.02 0.03 0.02 0.01 0.01 0.01 0.02 0.02 0.01 0.01 0.01 0.01 0.01 0.00 0.00 0.01 0.01 0.01 0.01 0.01 0.01 0.01
0.05 0.06 0.06 0.05 0.04 0.04 0.05 0.06 0.06 0.06 0.05 0.04 0.03 0.02 0.01 0.01 0.02 0.02 0.02 0.02 0.02 0.01 0.02 0.02 0.02 0.02 0.02 0.02 0.02 0.02 0.01 0.01 0.01 0.01 0.02 0.02 0.02 0.01
0.03 0.04 0.04 0.04 0.03 0.02 0.03 0.04 0.07 0.07 0.06 0.06 0.04 0.03 0.02 0.02 0.02 0.02 0.02 0.02 0.01 0.01 0.01 0.01 0.01 0.02 0.02 0.03 0.04 0.04 0.03 0.03 0.02 0.02 0.02 0.02 0.02 0.02
0.02 0.02 0.03 0.03 0.04 0.04 0.04 0.03 0.04 0.04 0.04 0.03 0.03 0.03 0.03 0.02 0.01 0.01 0.02 0.01 0.01 0.01 0.01 0.01 0.01 0.01 0.02 0.03 0.03 0.03 0.03 0.03 0.03 0.02 0.02 0.02 0.02 0.03
0.01 0.01 0.02 0.02 0.03 0.04 0.05 0.04 0.02 0.02 0.02 0.02 0.02 0.03 0.02 0.02 0.01 0.01 0.01 0.01 0.01 0.01 0.01 0.01 0.01 0.01 0.02 0.02 0.03 0.04 0.03 0.03 0.02 0.02 0.03 0.03 0.03 0.02
0.02 0.01 0.01 0.01 0.02 0.03 0.03 0.03 0.02 0.02 0.02 0.03 0.03 0.03 0.02 0.02 0.01 0.01 0.01 0.01 0.01 0.01 0.01 0.01 0.01 0.02 0.02 0.02 0.02 0.02 0.03 0.03 0.03 0.03 0.03 0.03 0.03 0.02
0.04 0.04 0.03 0.02 0.02 0.02 0.02 0.02 0.02 0.02 0.01 0.01 0.03 0.04 0.05 0.03 0.01 0.01 0.01 0.01 0.01 0.02 0.02 0.02 0.02 0.02 0.03 0.03 0.02 0.02 0.02 0.02 0.02 0.03 0.03 0.03 0.02 0.01
0.02 0.04 0.06 0.05 0.03 0.03 0.03 0.02 0.01 0.01 0.01 0.01 0.02 0.03 0.04 0.05 0.03 0.02 0.02 0.02 0.02 0.02 0.02 0.02 0.03 0.03 0.02 0.02 0.02 0.02 0.02 0.02 0.02 0.02 0.02 0.01 0.01 0.01
0.02 0.02 0.03 0.04 0.05 0.05 0.03 0.02 0.02 0.02 0.02 0.01 0.02 0.03 0.04 0.05 0.05 0.03 0.02 0.02 0.02 0.02 0.02 0.03 0.03 0.03 0.02 0.02 0.02 0.01 0.01 0.01 0.01 0.01 0.01 0.01 0.01 0.01
0.02 0.02 0.03 0.04 0.05 0.05 0.05 0.04 0.03 0.02 0.02 0.01 0.02 0.03 0.04 0.04 0.04 0.03 0.02 0.02 0.02 0.02 0.02 0.03 0.02 0.02 0.02 0.01 0.01 0.01 0.01 0.01 0.01 0.01 0.01 0.01 0.01 0.01
MSLP
1016.65 1017.01 1017.37 1017.69 1017.94 1018.10 1018.18 1018.20 1018.18 1018.17 1018.19 1018.24 1018.31 1018.37 1018.39 1018.33 1018.17 1017.89 1017.52 1017.09 1016.67 1016.32 1016.08 1016.01 1016.11 1016.39 1016.81 1017.34 1017.91 1018.50 1019.06 1019.58 1020.06 1020.48 1020.88 1021.26 1021.63 1021.99
1016.00 1016.35 1016.70 1017.03 1017.30 1017.50 1017.65 1017.74 1017.81 1017.89 1018.00 1018.13 1018.28 1018.42 1018.52 1018.54 1018.46 1018.28 1018.00 1017.66 1017.31 1017.01 1016.81 1016.74 1016.83 1017.07 1017.43 1017.88 1018.37 1018.87 1019.35 1019.78 1020.18 1020.53 1020.87 1021.19 1021.51 1021.83
1015.34 1015.67 1016.01 1016.34 1016.63 1016.87 1017.07 1017.24 1017.39 1017.56 1017.75 1017.96 1018.19 1018.41 1018.58 1018.68 1018.69 1018.60 1018.42 1018.18 1017.92 1017.70 1017.55 1017.51 1017.60 1017.80 1018.10 1018.48 1018.88 1019.29 1019.68 1020.03 1020.35 1020.64 1020.92 1021.18 1021.46 1021.74
1014.66 1014.99 1015.32 1015.64 1015.95 1016.22 1016.47 1016.70 1016.93 1017.17 1017.43 1017.71 1018.00 1018.29 1018.53 1018.71 1018.81 1018.81 1018.74 1018.61 1018.45 1018.31 1018.23 1018.22 1018.31 1018.48 1018.73 1019.04 1019.36 1019.69 1020.00 1020.28 1020.54 1020.78 1021.01 1021.25 1021.50 1021.77
1013.92 1014.25 1014.60 1014.93 1015.26 1015.56 1015.85 1016.13 1016.41 1016.70 1017.02 1017.35 1017.69 1018.02 1018.32 1018.57 1018.75 1018.85 1018.88 1018.86 1018.81 1018.76 1018.74 1018.77 1018.86 1019.01 1019.21 1019.45 1019.70 1019.96 1020.21 1020.44 1020.67 1020.89 1021.12 1021.36 1021.61 1021.88
1013.04 1013.42 1013.80 1014.16 1014.52 1014.86 1015.18 1015.50 1015.82 1016.14 1016.49 1016.85 1017.21 1017.58 1017.92 1018.22 1018.47 1018.66 1018.79 1018.87 1018.92 1018.96 1019.01 1019.07 1019.17 1019.30 1019.45 1019.63 1019.83 1020.03 1020.24 1020.46 1020.68 1020.92 1021.18 1021.45 1021.74 1022.04
1012.00 1012.44 1012.87 1013.29 1013.69 1014.07 1014.43 1014.78 1015.12 1015.47 1015.82 1016.18 1016.56 1016.93 1017.30 1017.64 1017.95 1018.21 1018.44 1018.62 1018.76 1018.88 1018.98 1019.08 1019.19 1019.30 1019.42 1019.56 1019.71 1019.88 1020.07 1020.30 1020.55 1020.83 1021.14 1021.47 1021.82 1022.16
1010.79 1011.30 1011.80 1012.29 1012.74 1013.17 1013.57 1013.95 1014.31 1014.66 1015.02 1015.37 1015.74 1016.11 1016.49 1016.86 1017.21 1017.54 1017.84 1018.10 1018.33 1018.52 1018.68 1018.82 1018.93 1019.03 1019.13 1019.23 1019.36 1019.51 1019.71 1019.96 1020.25 1020.59 1020.97 1021.37 1021.78 1022.17
1009.46 1010.05 1010.62 1011.16 1011.68 1012.16 1012.60 1013.01 1013.39 1013.75 1014.10 1014.45 1014.80 1015.17 1015.54 1015.93 1016.31 1016.69 1017.05 1017.39 1017.69 1017.95 1018.16 1018.33 1018.46 1018.56 1018.65 1018.74 1018.85 1019.00 1019.21 1019.48 1019.81 1020.21 1020.65 1021.11 1021.57 1022.02
1008.12 1008.75 1009.37 1009.96 1010.53 1011.06 1011.55 1012.00 1012.40 1012.78 1013.13 1013.48 1013.83 1014.18 1014.56 1014.95 1015.36 1015.77 1016.18 1016.58 1016.94 1017.25 1017.51 1017.72 1017.87 1017.99 1018.08 1018.16 1018.27 1018.42 1018.64 1018.92 1019.29 1019.71 1020.19 1020.69 1021.19 1021.66
1006.88 1007.50 1008.13 1008.75 1009.35 1009.92 1010.45 1010.93 1011.37 1011.78 1012.16 1012.52 1012.87 1013.23 1013.61 1014.02 1014.44 1014.88 1015.33 1015.76 1016.17 1016.53 1016.84 1017.08 1017.27 1017.40 1017.50 1017.59 1017.70 1017.85 1018.07 1018.36 1018.72 1019.16 1019.64 1020.14 1020.64 1021.10
1005.83 1006.39 1006.98 1007.58 1008.17 1008.76 1009.31 1009.84 1010.33 1010.78 1011.20 1011.59 1011.98 1012.36 1012.76 1013.18 1013.62 1014.08 1014.55 1015.02 1015.45 1015.85 1016.20 1016.48 1016.70 1016.86 1016.98 1017.09 1017.20 1017.35 1017.55 1017.82 1018.16 1018.57 1019.02 1019.49 1019.96 1020.39
1005.01 1005.45 1005.94 1006.47 1007.02 1007.59 1008.17 1008.73 1009.26 1009.77 1010.25 1010.71 1011.15 1011.58 1012.01 1012.46 1012.92 1013.39 1013.88 1014.36 1014.82 1015.24 1015.62 1015.93 1016.18 1016.37 1016.52 1016.64 1016.76 1016.90 1017.08 1017.32 1017.61 1017.96 1018.35 1018.77 1019.18 1019.56
1004.39 1004.66 1005.00 1005.41 1005.88 1006.41 1006.97 1007.56 1008.14 1008.72 1009.28 1009.82 1010.33 1010.83 1011.31 1011.80 1012.29 1012.78 1013.28 1013.76 1014.23 1014.67 1015.06 1015.40 1015.68 1015.91 1016.08 1016.22 1016.35 1016.48 1016.64 1016.83 1017.06 1017.34 1017.66 1017.99 1018.33 1018.65
1003.89 1003.95 1004.11 1004.36 1004.72 1005.17 1005.70 1006.29 1006.92 1007.56 1008.21 1008.84 1009.45 1010.03 1010.59 1011.13 1011.66 1012.17 1012.68 1013.17 1013.64 1014.08 1014.49 1014.84 1015.15 1015.40 1015.60 1015.76 1015.90 1016.03 1016.16 1016.31 1016.48 1016.69 1016.92 1017.17 1017.43 1017.69
1003.41 1003.25 1003.20 1003.28 1003.50 1003.86 1004.33 1004.90 1005.56 1006.26 1006.99 1007.71 1008.42 1009.11 1009.75 1010.36 1010.94 1011.48 1012.01 1012.50 1012.97 1013.42 1013.83 1014.20 1014.53 1014.80 1015.03 1015.22 1015.37 1015.49 1015.60 1015.72 1015.84 1015.98 1016.14 1016.31 1016.50 1016.70
1002.87 1002.50 1002.26 1002.16 1002.22 1002.46 1002.85 1003.39 1004.04 1004.79 1005.58 1006.40 1007.21 1008.00 1008.74 1009.43 1010.07 1010.66 1011.21 1011.72 1012.20 1012.65 1013.06 1013.45 1013.79 1014.09 1014.35 1014.56 1014.72 1014.86 1014.96 1015.05 1015.14 1015.23 1015.32 1015.44 1015.57 1015.72
1002.24 1001.71 1001.29 1001.02 1000.93 1001.04 1001.33 1001.81 1002.44 1003.19 1004.03 1004.92 1005.81 1006.69 1007.53 1008.31 1009.02 1009.67 1010.26 1010.80 1011.30 1011.76 1012.19 1012.59 1012.96 1013.28 1013.56 1013.80 1013.99 1014.14 1014.25 1014.33 1014.39 1014.44 1014.50 1014.57 1014.65 1014.76
1001.60 1000.93 1000.37 999.96 999.72 999.70 999.88 1000.26 1000.84 1001.57 1002.42 1003.34 1004.30 1005.26 1006.18 1007.04 1007.83 1008.55 1009.20 1009.79 1010.32 1010.81 1011.27 1011.69 1012.08 1012.43 1012.74 1013.00 1013.22 1013.38 1013.50 1013.59 1013.64 1013.68 1013.70 1013.74 1013.79 1013.86
1001.03 1000.28 999.62 999.09 998.72 998.56 998.62 998.90 999.38 1000.06 1000.88 1001.80 1002.79 1003.80 1004.78 1005.71 1006.58 1007.37 1008.09 1008.73 1009.31 1009.85 1010.34 1010.79 1011.21 1011.59 1011.93 1012.22 1012.46 1012.65 1012.79 1012.88 1012.93 1012.96 1012.97 1012.99 1013.01 1013.06
1000.64 999.86 999.14 998.52 998.05 997.76 997.69 997.84 998.22 998.80 999.55 1000.44 1001.41 1002.43 1003.45 1004.43 1005.36 1006.22 1007.00 1007.71 1008.35 1008.93 1009.47 1009.96 1010.41 1010.83 1011.19 1011.51 1011.77 1011.98 1012.13 1012.23 1012.29 1012.32 1012.32 1012.33 1012.34 1012.36
1000.53 999.75 999.00 998.33 997.77 997.38 997.18 997.20 997.45 997.91 998.56 999.36 1000.29 1001.28 1002.29 1003.30 1004.26 1005.17 1006.01 1006.78 1007.47 1008.11 1008.69 1009.22 1009.71 1010.15 1010.54 1010.87 1011.15 1011.37 1011.54 1011.65 1011.72 1011.75 1011.76 1011.76 1011.76 1011.78
1000.69 999.96 999.22 998.52 997.90 997.42 997.12 997.01 997.13 997.45 997.98 998.68 999.51 1000.44 1001.42 1002.41 1003.38 1004.31 1005.18 1005.99 1006.73 1007.40 1008.02 1008.58 1009.09 1009.55 1009.96 1010.30 1010.59 1010.82 1010.99 1011.11 1011.18 1011.23 1011.25 1011.26 1011.27 1011.29
Thickness
5683 5681 5680 5679 5678 5676 5675 5673 5669 5668 5670 5673 5674 5677 5676 5676 5677 5677 5677 5677 5678 5678 5678 5678 5677 5676 5675 5674 5672 5671 5670 5669 5667 5666 5665 5664 5663 5663
5679 5677 5676 5675 5674 5673 5672 5670 5668 5667 5666 5669 5670 5672 5672 5672 5672 5672 5673 5673 5674 5674 5674 5674 5673 5672 5670 5670 5669 5668 5666 5665 5664 5662 5661 5660 5660 5659
5675 5673 5673 5672 5670 5669 5668 5667 5665 5663 5662 5665 5666 5667 5667 5667 5667 5667 5667 5668 5669 5669 5669 5669 5668 5667 5666 5665 5665 5664 5663 5661 5660 5658 5657 5657 5656 5656
5671 5669 5668 5667 5666 5665 5663 5663 5662 5660 5659 5660 5661 5661 5662 5663 5663 5663 5663 5663 5663 5664 5664 5663 5663 5662 5662 5661 5660 5659 5659 5657 5656 5654 5653 5653 5652 5652
5666 5665 5664 5663 5661 5660 5659 5658 5657 5657 5656 5655 5656 5656 5657 5657 5657 5657 5657 5657 5658 5658 5658 5658 5658 5657 5657 5657 5656 5655 5654 5653 5652 5650 5649 5648 5648 5647
5661 5660 5660 5659 5657 5656 5655 5654 5653 5652 5651 5651 5651 5651 5651 5651 5650 5650 5650 5651 5651 5652 5652 5652 5652 5652 5652 5651 5651 5650 5649 5647 5646 5645 5644 5643 5643 5643
5656 5655 5655 5654 5653 5651 5651 5649 5649 5647 5646 5645 5645 5645 5644 5644 5644 5644 5644 5644 5645 5645 5646 5647 5647 5646 5646 5645 5645 5644 5643 5642 5641 5640 5639 5639 5638 5638
5651 5650 5650 5649 5648 5647 5646 5645 5645 5643 5642 5640 5639 5638 5639 5638 5638 5638 5638 5637 5638 5640 5639 5640 5641 5641 5641 5640 5640 5639 5638 5637 5635 5635 5634 5633 5633 5632
5646 5645 5644 5644 5642 5641 5640 5639 5639 5639 5639 5637 5636 5635 5634 5634 5633 5632 5632 5632 5633 5634 5633 5635 5635 5634 5635 5634 5634 5633 5632 5631 5629 5628 5627 5627 5626 5626
5641 5639 5638 5637 5636 5635 5634 5633 5633 5633 5633 5633 5632 5632 5631 5630 5629 5628 5627 5626 5626 5627 5627 5627 5628 5628 5629 5628 5628 5627 5625 5624 5623 5622 5621 5620 5620 5620
5635 5634 5632 5631 5630 5629 5628 5627 5627 5627 5627 5628 5627 5627 5626 5625 5623 5622 5621 5620 5621 5622 5621 5620 5621 5620 5621 5621 5621 5620 5619 5618 5616 5615 5615 5614 5614 5614
5628 5627 5627 5625 5624 5623 5622 5622 5621 5620 5620 5621 5620 5620 5619 5619 5618 5618 5617 5615 5615 5615 5615 5614 5614 5613 5614 5615 5614 5613 5612 5611 5610 5609 5609 5608 5608 5606
5622 5621 5621 5619 5619 5618 5617 5616 5616 5615 5614 5613 5613 5613 5613 5613 5613 5612 5612 5611 5610 5610 5610 5608 5608 5607 5607 5607 5608 5607 5607 5606 5605 5604 5603 5602 5600 5599
5616 5615 5615 5613 5613 5612 5611 5610 5609 5608 5608 5607 5607 5607 5607 5608 5608 5607 5607 5606 5606 5605 5605 5603 5602 5601 5601 5600 5601 5602 5601 5600 5599 5598 5597 5595 5594 5593
5610 5609 5608 5608 5607 5607 5606 5605 5604 5603 5603 5603 5602 5602 5602 5602 5602 5602 5601 5601 5600 5600 5599 5598 5597 5596 5595 5594 5594 5594 5594 5594 5593 5592 5591 5590 5589 5588
5603 5602 5602 5602 5602 5601 5600 5600 5599 5598 5598 5598 5597 5597 5596 5596 5596 5596 5596 5595 5595 5595 5594 5593 5592 5591 5590 5589 5588 5588 5587 5587 5587 5586 5585 5584 5583 5582
5597 5596 5596 5596 5596 5596 5595 5595 5594 5593 5592 5592 5592 5592 5592 5592 5592 5591 5590 5590 5589 5589 5589 5588 5587 5586 5585 5583 5583 5582 5581 5580 5580 5579 5578 5579 5579 5577
5591 5591 5591 5591 5591 5590 5590 5590 5589 5589 5588 5588 5588 5587 5587 5587 5587 5586 5585 5585 5584 5584 5583 5583 5581 5581 5580 5580 5577 5577 5576 5575 5574 5572 5572 5572 5573 5572
5587 5586 5586 5586 5585 5586 5586 5585 5585 5585 5584 5583 5583 5583 5583 5583 5582 5582 5581 5580 5579 5579 5578 5577 5576 5575 5575 5575 5575 5571 5571 5570 5569 5567 5566 5566 5566 5566
5582 5581 5581 5581 5581 5581 5580 5580 5580 5579 5579 5579 5578 5578 5578 5578 5577 5577 5576 5575 5574 5573 5573 5572 5571 5570 5569 5569 5569 5568 5566 5565 5563 5562 5561 5559 5559 5558
5577 5576 5576 5576 5576 5575 5575 5574 5574 5574 5574 5574 5574 5573 5573 5572 5572 5572 5571 5569 5568 5568 5568 5568 5567 5564 5563 5562 5563 5563 5562 5559 5558 5556 5555 5553 5554 5553
5571 5571 5570 5570 5569 5569 5568 5568 5568 5568 5568 5568 5568 5568 5567 5567 5567 5566 5566 5565 5564 5564 5564 5563 5562 5560 5559 5559 5560 5559 5557 5555 5552 5550 5548 5547 5547 5547
5566 5565 5564 5564 5563 5562 5562 5562 5562 5562 5562 5562 5562 5562 5562 5562 5562 5561 5561 5561 5560 5560 5559 5558 5557 5556 5556 5555 5555 5554 5552 5550 5549 5546 5545 5542 5540 5540